This demonstration page uses our WeatherBlox Daily Observations layout. Learn more.

Left ArrowRight Arrow

41.12389, -100.76542

Hourly Observations for November 6, 2016

Temp ( °F °C ) Dew Point ( °F °C ) Humidity (%) Winds ( mph kmh ) Pressure ( in mb ) Visibility ( mi km ) Precip ( " mm )
12:53 am 00:53 Clear 54 12.2 50 10 87 87 SE 9 15 30.09 1019 10 16 0.00 0.00
1:53 am 01:53 Clear 52 11.1 49 9.4 89 89 SE 8 13 30.08 1019 10 16 0.00 0.00
1:48 am 01:48 Mostly Cloudy 54 12 52 11 94 94 SSE 8 13 30.12 1020 10 16 0.00 0.00
1:53 am 01:53 Mostly Cloudy 54 12.2 51 10.6 90 90 SSE 9 15 30.06 1018 10 16 0.00 0.00
2:53 am 02:53 Cloudy 54 12.2 52 11.1 93 93 S 12 19 30.06 1018 9 14 0.00 0.00
3:20 am 03:20 Cloudy 54 12.2 52 11.1 93 93 SSE 10 17 30.09 1019 7 11 0.00 0.00
3:53 am 03:53 Cloudy 54 12.2 52 11.1 93 93 SSE 8 13 30.06 1018 7 11 0.00 0.00
4:11 am 04:11 Cloudy 54 12 52 11 94 94 SSE 7 11 30.06 1018 7 11 0.00 0.00
4:53 am 04:53 Cloudy 55 12.8 53 11.7 93 93 SE 6 9 30.06 1018 8 13 0.00 0.00
5:19 am 05:19 Cloudy 55 12.8 53 11.7 93 93 SE 8 13 30.06 1018 8 13 0.00 0.00
5:53 am 05:53 Cloudy 56 13.3 53 11.7 90 90 SE 8 13 30.05 1018 9 14 0.00 0.00
6:53 am 06:53 Cloudy 57 13.9 53 11.7 87 87 SE 8 13 30.05 1018 10 16 0.00 0.00
7:46 am 07:46 Cloudy 56 13.3 53 11.7 90 90 SE 9 15 30.06 1018 9 14 0.00 0.00
7:53 am 07:53 Cloudy 56 13.3 53 11.7 90 90 SE 10 17 30.06 1018 9 14 0.00 0.00
8:53 am 08:53 Cloudy 56 13.3 52 11.1 87 87 SSE 12 19 30.08 1019 10 16 0.00 0.00
9:53 am 09:53 Cloudy 56 13.3 52 11.1 87 87 S 9 15 30.07 1018 7 11 0.00 0.00
10:53 am 10:53 Cloudy 57 13.9 52 11.1 83 83 SSE 8 13 30.05 1018 9 14 0.00 0.00
11:14 am 11:14 Cloudy 59 15 52 11 77 77 SSE 14 22 30.00 1016 10 16 0.00 0.00
11:53 am 11:53 Mostly Cloudy 61 16.1 52 11.1 72 72 SSE 10 17 30.04 1017 10 16 0.00 0.00
12:09 pm 12:09 Mostly Sunny 63 17 52 11 68 68 SSE 13 20 30.00 1016 10 16 0.00 0.00
12:45 pm 12:45 Mostly Cloudy 66 18.9 53 11.7 63 63 S 18 30 29.94 1014 10 16 0.00 0.00
12:53 pm 12:53 Mostly Cloudy 64 17.8 52 11.1 65 65 S 16 26 30.01 1016 10 16 0.00 0.00
1:23 pm 13:23 Mostly Cloudy 64 17.8 52 11.1 65 65 S 13 20 29.94 1014 10 16 0.00 0.00
1:53 pm 13:53 Partly Cloudy 63 17.2 51 10.6 65 65 S 16 26 29.99 1016 10 16 0.00 0.00
2:41 pm 14:41 Cloudy 63 17 52 11 68 68 SSE 8 13 29.91 1013 10 16 0.00 0.00
2:53 pm 14:53 Cloudy 64 17.8 52 11.1 65 65 S 12 19 29.98 1015 10 16 0.00 0.00
3:22 pm 15:22 Mostly Cloudy 64 18 54 12 68 68 S 16 26 29.91 1013 10 16 0.00 0.00
3:53 pm 15:53 Cloudy 64 17.8 53 11.7 68 68 SSE 13 20 29.97 1015 10 16 0.00 0.00
4:25 pm 16:25 Cloudy 63 17.2 53 11.7 70 70 SSE 13 20 29.91 1013 10 16 0.00 0.00
4:53 pm 16:53 Cloudy 62 16.7 53 11.7 73 73 SSE 13 20 29.98 1015 10 16 0.00 0.00
5:24 pm 17:24 Cloudy 62 16.7 52 11.1 70 70 SSE 9 15 29.91 1013 10 16 0.00 0.00
5:53 pm 17:53 Cloudy 62 16.7 52 11.1 70 70 S 16 26 29.98 1015 10 16 0.00 0.00
6:42 pm 18:42 Mostly Clear 61 16 52 11 72 72 SSE 10 17 29.97 1015 10 16 0.00 0.00
6:53 pm 18:53 Partly Cloudy 60 15.6 52 11.1 75 75 SSE 10 17 29.99 1016 10 16 0.00 0.00
7:53 pm 19:53 Mostly Clear 59 15 51 10.6 75 75 S 12 19 30.00 1016 10 16 0.00 0.00
8:53 pm 20:53 Clear 58 14.4 52 11.1 81 81 SSE 8 13 30.02 1017 10 16 0.00 0.00
9:20 pm 21:20 Mostly Cloudy 57 14 52 11 82 82 SSE 12 19 30.03 1017 10 16 0.00 0.00
9:53 pm 21:53 Cloudy 58 14.4 53 11.7 84 84 S 10 17 30.03 1017 10 16 0.00 0.00
10:40 pm 22:40 Cloudy 57 14 54 12 88 88 S 12 19 30.03 1017 10 16 0.00 0.00
10:53 pm 22:53 Cloudy 57 13.9 52 11.1 83 83 SSE 12 19 30.02 1017 10 16 0.00 0.00
11:53 pm 23:53 Cloudy 57 13.9 52 11.1 83 83 SSE 8 13 30.02 1017 10 16 0.00 0.00

Powered by AerisWeather